NOAA 16 DEB, 41362

Orbit data source: Space-Track

NOAA 16 DEB, 41362 is space debris in SSO originally from a launch on Thu, 21 Sep 2000 UTC launched from the Air Force Western Test Range (AFWTR). Debris objects in space refer to the collection of defunct objects orbiting the Earth. Examples of debris include non-operational satellites, rocket bodies, and fragments generated from explosions, collisions, or faulty payload assembly.

Loading next visibility...
Identifier
41362, 2000-055JF
Orbit
SSO
Country
Flag of USUS
Related business
Manufacturer
Unknown
Mission
Spacecraft
Bus & Motor
Unknown
Mass
Unknown
Launch date (UTC)
2000-09-21 (25 years ago)
Launch vehicle
Unknown
Launch site
Air Force Western Test Range (AFWTR)
Object type
Payload
Rocket body
Debris
Shape & HBR
Unknown shape, 0.1 m
Radar Cross Section
Small (<0.1 m²)

Expand to show TLE details & history
Last TLE update: 11 hours ago

TLE from 11 hours ago
0 NOAA 16 DEB
1 41362U 00055JF  25300.03575694  .00011507  00000-0  26141-2 0  9995
2 41362  98.9610 141.9092 0034575   2.0626 358.0706 14.55791824508869
Epoch: 2025-10-27T00:51Z
TLE epoch observation values (Epoch: 2025-10-27T00:51:29.399Z)
Latitude
-0.00001°
Longitude
93.39333°
Altitude
685.262 km
Speed
7.527 km/s
True Right ascension
09h 27m 38s
True Declination
0° 00' 00"
Sunlit
Object was in daylight at epoch
Visualization orbit readout
Latitude
Unknown
Longitude
Unknown
Altitude
Unknown
Speed
Unknown
Apparent Right ascension
Unknown
Apparent Declination
Unknown
Sunlit
N/A
Visualization observer readout
Local Sidereal Time
07:05:17
Azimuth
Unknown
Elevation
Unknown
Doppler factor
Unknown
Orbital elements
Apogee altitude
728.404 km
Perigee altitude
679.432 km
Semi-major axis
7,082.055 km
Eccentricity
0.00346
Inclination
98.961°
RAAN
141.9092°
Arg. of periapsis
2.0626°
True anomaly
358.0572°
Mean anomaly
358.0706°
Eccentric anomaly
358.06391°
Mean motion
3.6417 °/min
Orbital period
98.85 mins
BSTAR
0.0026141
Loading maneuver chart data...
Computing Atmospheric mass density...
Loading historical data...
Loading historical data...
Loading historical data...
Loading historical data...
Loading historical data...
Loading historical data...
Loading historical data...

Documentation

Showing up to 5 results
|